Location: Bethera
(33.2010°N, 79.7880°W)
Time: 07:38:17
(UTC-04:00)

Amateur Radio Satellites - All Passes

Search period start: 02 September 2014 07:08
Search period end: 03 September 2014 07:08
Location: Bethera, 33.2010°N, 79.7880°W

Satellite Date Start Highest point End Downlink Frequencies (MHz)
Time Altitude Azimuth
Saudisat 1A 02 Sep 07:13:00 07:16:55 30° 55° (NE) 07:20:47 436.775 MHz
RS-15 02 Sep 07:21:17 07:32:10 61° 112° (ESE) 07:42:47 29.354 - 29.394 USB, Beacon 29.352 USB
KITSAT 1 02 Sep 07:23:11 07:28:34 19° 45° (NE) 07:33:55 435.175 FM
AO-7 02 Sep 07:29:19 07:35:23 23° 301° (WNW) 07:41:27 29.400 - 29.500 MHz
STRAND 1 02 Sep 07:40:52 07:45:54 63° 258° (WSW) 07:50:57 ?
Hamsat 02 Sep 08:01:23 08:04:56 25° 289° (WNW) 08:08:26 145.90 MHz
JAS-2 02 Sep 08:15:59 08:20:37 31° 289° (WNW) 08:25:37 435.800 - 435.900 CW/SSB, 435.910 FM
SO-67 02 Sep 08:39:54 08:43:17 53° 283° (WNW) 08:46:38 435.3500 MHz FM
Saudisat 1A 02 Sep 08:52:56 08:56:17 21° 250° (WSW) 08:59:36 436.775 MHz
KITSAT 1 02 Sep 09:16:56 09:25:02 89° 64° (ENE) 09:33:06 435.175 FM
RS-15 02 Sep 09:35:08 09:44:57 36° 312° (NW) 09:54:43 29.354 - 29.394 USB, Beacon 29.352 USB
ISS 02 Sep 09:45:50 09:49:08 71° 317° (NW) 09:52:27 145.800 FM
PANSAT 02 Sep 09:50:53 09:53:00 14° 158° (SSE) 09:55:07 not established
UKube-1 02 Sep 10:00:02 10:03:24 22° 96° (E) 10:06:46 145.840 MHz, 145.915 MHz
Oscar 11 02 Sep 10:03:56 10:06:33 16° 94° (E) 10:09:09 145.825 FM, Beacon 2401.500 USB
HO-68 02 Sep 10:04:59 10:12:01 57° 102° (ESE) 10:19:01 435.675 MHz FM
FUNcube-1 02 Sep 10:37:05 10:39:44 15° 94° (E) 10:42:22 145.950 - 145.970 MHz USB
KITSAT 1 02 Sep 11:15:26 11:19:20 14° 259° (W) 11:23:14 435.175 FM
PANSAT 02 Sep 11:29:13 11:32:42 32° 170° (S) 11:36:11 not established
UKube-1 02 Sep 11:35:57 11:39:31 25° 290° (WNW) 11:43:04 145.840 MHz, 145.915 MHz
Oscar 11 02 Sep 11:38:49 11:42:48 35° 287° (WNW) 11:46:45 145.825 FM, Beacon 2401.500 USB
HO-68 02 Sep 11:53:46 11:59:11 24° 297° (WNW) 12:04:36 435.675 MHz FM
SO-50 02 Sep 11:57:08 12:00:56 23° 53° (NE) 12:04:45 436.795 FM
RS-15 02 Sep 12:00:01 12:02:08 11° 344° (NNW) 12:04:15 29.354 - 29.394 USB, Beacon 29.352 USB
FUNcube-1 02 Sep 12:11:56 12:16:13 41° 286° (WNW) 12:20:33 145.950 - 145.970 MHz USB
Oscar 16 02 Sep 12:52:48 12:55:24 14° 65° (ENE) 12:58:01 437.025 USB, Beacon 2401.1428
MaSat-1 02 Sep 12:53:04 12:57:49 72° 110° (ESE) 13:02:56 437.345 MHz
PANSAT 02 Sep 13:08:56 13:12:35 40° 183° (S) 13:16:14 not established
AO-27 02 Sep 13:26:40 13:28:43 12° 64° (ENE) 13:30:45 436.795 MHz FM
SO-50 02 Sep 13:37:09 13:41:34 36° 247° (WSW) 13:46:00 436.795 FM
UOSAT-12 02 Sep 13:41:21 13:44:49 20° 51° (NE) 13:48:14 437.025 FM, 437.400 FM
Oscar 10/S400 02 Sep 13:42:54 07:07:47 31° 227° (SW) 14:14:20 145.825 - 145.975 CW/USB, Beacon 145.810 USB
Oscar 19 02 Sep 13:53:44 13:58:46 58° 74° (ENE) 14:03:51 437.125 CW, 437.150 USB
AO-Echo 02 Sep 13:59:14 14:03:30 29° 71° (ENE) 14:07:41 ?
Gurwin Techsat 1B 02 Sep 14:10:05 14:12:57 15° 65° (ENE) 14:15:49 435.225 FM
JAS-1B 02 Sep 14:10:40 14:19:56 50° 70° (ENE) 14:28:19 435.800 - 435.900 CW/SSB
RS-15 02 Sep 14:17:14 14:22:08 13° 25° (NNE) 14:27:04 29.354 - 29.394 USB, Beacon 29.352 USB
Oscar 16 02 Sep 14:29:08 14:34:11 59° 259° (W) 14:39:18 437.025 USB, Beacon 2401.1428
ITAMSAT 1 02 Sep 14:32:42 14:37:45 59° 74° (ENE) 14:42:50 435.822 SSB
MaSat-1 02 Sep 14:33:03 14:35:24 13° 307° (NW) 14:37:47 437.345 MHz
Uribyol 2 02 Sep 14:41:48 14:46:57 79° 76° (ENE) 14:52:07 436.500 FM
AO-7 02 Sep 14:44:01 14:46:07 11° 51° (NE) 14:48:13 29.400 - 29.500 MHz
PANSAT 02 Sep 14:49:13 14:52:25 25° 195° (SSW) 14:55:38 not established
TMSAT-1 02 Sep 14:57:39 15:02:16 32° 70° (ENE) 15:06:54 436.925 FM
AO-27 02 Sep 15:02:27 15:07:36 67° 258° (WSW) 15:12:45 436.795 MHz FM
UOSAT-12 02 Sep 15:20:42 15:25:06 40° 247° (WSW) 15:29:25 437.025 FM, 437.400 FM
PCSat 02 Sep 15:34:27 15:38:13 19° 105° (ESE) 15:41:59 145.825 MHz
Oscar 19 02 Sep 15:36:03 15:38:25 13° 268° (W) 15:40:47 437.125 CW, 437.150 USB
AO-Echo 02 Sep 15:38:04 15:42:11 25° 263° (W) 15:46:13 ?
Gurwin Techsat 1B 02 Sep 15:47:10 15:52:22 58° 259° (W) 15:57:36 435.225 FM
JAS-1B 02 Sep 16:01:29 16:10:18 38° 262° (W) 16:18:30 435.800 - 435.900 CW/SSB
ITAMSAT 1 02 Sep 16:15:21 16:17:33 13° 267° (W) 16:19:46 435.822 SSB
ISS 02 Sep 16:18:32 16:21:02 19° 34° (NE) 16:23:32 145.800 FM
RS-15 02 Sep 16:27:37 16:38:15 48° 53° (NE) 16:49:14 29.354 - 29.394 USB, Beacon 29.352 USB
AO-7 02 Sep 16:29:06 16:37:18 65° 69° (ENE) 16:45:29 29.400 - 29.500 MHz
Uosat F 02 Sep 16:30:13 16:34:59 46° 73° (ENE) 16:39:46 435.120 FM
OPAL 02 Sep 16:32:38 16:32:43 10° 93° (E) 16:32:47 ?
TMSAT-1 02 Sep 16:37:49 16:42:08 26° 264° (W) 16:46:29 436.925 FM
Sapphire 02 Sep 16:46:36 16:52:00 90° 112° (ESE) 16:57:26 437.095 MHz 1200 baud AX-25 AFSK
PCSat 02 Sep 17:16:04 17:21:13 45° 300° (WNW) 17:26:25 145.825 MHz
ISS 02 Sep 17:54:47 17:57:50 34° 229° (SW) 18:00:53 145.800 FM
OPAL 02 Sep 18:06:48 18:12:01 75° 287° (WNW) 18:17:10 ?
Uosat F 02 Sep 18:11:00 18:13:57 16° 266° (W) 18:16:54 435.120 FM
JAS-2 02 Sep 18:22:57 18:29:06 66° 75° (ENE) 18:34:35 435.800 - 435.900 CW/SSB, 435.910 FM
AO-7 02 Sep 18:24:15 18:30:28 23° 264° (W) 18:36:43 29.400 - 29.500 MHz
Sapphire 02 Sep 18:34:17 18:36:08 12° 312° (NW) 18:38:00 437.095 MHz 1200 baud AX-25 AFSK
RS-15 02 Sep 18:40:08 18:50:26 45° 252° (WSW) 19:01:12 29.354 - 29.394 USB, Beacon 29.352 USB
Hamsat 02 Sep 18:49:32 18:53:47 60° 260° (W) 18:58:05 145.90 MHz
SO-67 02 Sep 19:09:15 19:12:00 22° 73° (ENE) 19:14:46 435.3500 MHz FM
STRAND 1 02 Sep 19:55:42 20:00:46 63° 102° (ESE) 20:05:49 ?
JAS-2 02 Sep 20:11:32 20:14:22 13° 265° (W) 20:17:04 435.800 - 435.900 CW/SSB, 435.910 FM
HO-68 02 Sep 20:29:54 20:35:42 28° 64° (ENE) 20:41:30 435.675 MHz FM
SO-67 02 Sep 20:43:03 20:45:00 14° 266° (W) 20:46:57 435.3500 MHz FM
UKube-1 02 Sep 20:53:24 20:55:03 12° 66° (ENE) 20:56:41 145.840 MHz, 145.915 MHz
Saudisat 1A 02 Sep 21:16:11 21:19:28 21° 110° (ESE) 21:22:45 436.775 MHz
STRAND 1 02 Sep 21:37:07 21:39:22 13° 296° (WNW) 21:41:37 ?
KITSAT 1 02 Sep 21:48:11 21:53:24 19° 102° (ESE) 21:58:36 435.175 FM
HO-68 02 Sep 22:16:12 22:23:01 48° 259° (W) 22:29:53 435.675 MHz FM
UKube-1 02 Sep 22:26:35 22:30:47 49° 260° (W) 22:35:00 145.840 MHz, 145.915 MHz
Oscar 11 02 Sep 22:29:03 22:33:22 79° 258° (WSW) 22:37:44 145.825 FM, Beacon 2401.500 USB
MaSat-1 02 Sep 22:52:02 22:56:19 63° 66° (ENE) 22:59:56 437.345 MHz
Saudisat 1A 02 Sep 22:54:54 22:58:49 31° 305° (NW) 23:02:45 436.775 MHz
FUNcube-1 02 Sep 23:03:58 23:08:09 86° 258° (WSW) 23:12:25 145.950 - 145.970 MHz USB
KITSAT 1 02 Sep 23:39:50 23:47:54 75° 298° (WNW) 23:56:01 435.175 FM
Sapphire 03 Sep 01:39:18 01:44:01 30° 57° (ENE) 01:48:43 437.095 MHz 1200 baud AX-25 AFSK
KITSAT 1 03 Sep 01:40:08 01:44:41 16° 318° (NW) 01:49:16 435.175 FM
PCSat 03 Sep 02:07:58 02:13:19 58° 62° (ENE) 02:18:38 145.825 MHz
SO-50 03 Sep 02:09:19 02:12:06 16° 109° (ESE) 02:14:54 436.795 FM
Oscar 19 03 Sep 02:10:08 02:14:36 29° 97° (E) 02:19:02 437.125 CW, 437.150 USB
AO-Echo 03 Sep 02:12:33 02:14:06 11° 93° (E) 02:15:38 ?
Oscar 16 03 Sep 02:45:04 02:50:16 71° 102° (ESE) 02:55:25 437.025 USB, Beacon 2401.1428
ITAMSAT 1 03 Sep 02:50:16 02:54:48 30° 97° (E) 02:59:18 435.822 SSB
Uribyol 2 03 Sep 02:59:04 03:03:56 40° 99° (E) 03:08:47 436.500 FM
TMSAT-1 03 Sep 03:18:31 03:22:01 18° 94° (E) 03:25:30 436.925 FM
AO-27 03 Sep 03:19:47 03:24:56 63° 102° (ESE) 03:30:04 436.795 MHz FM
Sapphire 03 Sep 03:22:39 03:27:21 31° 252° (WSW) 03:32:02 437.095 MHz 1200 baud AX-25 AFSK
OPAL 03 Sep 03:42:15 03:44:22 13° 62° (ENE) 03:46:30 ?
SO-50 03 Sep 03:48:06 03:52:16 39° 303° (WNW) 03:56:33 436.795 FM
AO-Echo 03 Sep 03:48:32 03:53:07 54° 286° (WNW) 03:57:46 ?
Oscar 19 03 Sep 03:49:28 03:53:48 27° 291° (WNW) 03:58:06 437.125 CW, 437.150 USB
UOSAT-12 03 Sep 03:50:02 03:52:19 14° 107° (ESE) 03:54:36 437.025 FM, 437.400 FM
PCSat 03 Sep 03:53:17 03:56:10 15° 256° (WSW) 03:59:02 145.825 MHz
JAS-1B 03 Sep 03:53:18 03:59:39 79° 285° (WNW) 04:05:20 435.800 - 435.900 CW/SSB
Gurwin Techsat 1B 03 Sep 04:07:36 04:12:56 81° 103° (ESE) 04:18:14 435.225 FM
Oscar 16 03 Sep 04:27:08 04:28:57 12° 297° (WNW) 04:30:45 437.025 USB, Beacon 2401.1428
ITAMSAT 1 03 Sep 04:29:52 04:34:08 27° 291° (WNW) 04:38:24 435.822 SSB
AO-7 03 Sep 04:36:27 04:43:10 27° 97° (E) 04:49:49 29.400 - 29.500 MHz
Uribyol 2 03 Sep 04:39:19 04:43:05 21° 293° (WNW) 04:46:50 436.500 FM
Uosat F 03 Sep 04:43:00 04:46:40 20° 95° (E) 04:50:19 435.120 FM
TMSAT-1 03 Sep 04:57:04 05:02:05 45° 288° (WNW) 05:07:06 436.925 FM
AO-27 03 Sep 05:01:28 05:03:51 13° 296° (WNW) 05:06:15 436.795 MHz FM
OPAL 03 Sep 05:17:35 05:22:36 67° 256° (WSW) 05:27:43 ?
UOSAT-12 03 Sep 05:27:30 05:31:57 50° 302° (WNW) 05:36:31 437.025 FM, 437.400 FM
Gurwin Techsat 1B 03 Sep 05:51:16 05:52:09 10° 297° (WNW) 05:53:02 435.225 FM
Uosat F 03 Sep 06:20:57 06:25:30 36° 289° (WNW) 06:30:02 435.120 FM
AO-7 03 Sep 06:28:11 06:36:12 56° 292° (WNW) 06:44:11 29.400 - 29.500 MHz
Hamsat 03 Sep 06:39:50 06:43:44 32° 97° (E) 06:47:34 145.90 MHz
RS-15 03 Sep 06:46:04 06:56:23 45° 108° (ESE) 07:06:26 29.354 - 29.394 USB, Beacon 29.352 USB
